Estación de Nogales
Ultimos registro cada 15 minutos 45
| N° | Estación | Fecha / Hora | Temperatura | Humedad | Lluvia | Velocidad | Dirección | Radiación | Presion |
| 45 | Nogales | 02-05-2026 11:00 | 21,8 | 51,5 | 0 | 0,3 | 181 | 616,9 | 984,4 |
| 44 | Nogales | 02-05-2026 10:45 | 20,9 | 53,1 | 0 | 0 | 76 | 586,9 | 984,7 |
| 43 | Nogales | 02-05-2026 10:30 | 20,2 | 58,9 | 0 | 0 | 73 | 554,4 | 985 |
| 42 | Nogales | 02-05-2026 10:15 | 18,3 | 60,6 | 0 | 0 | 73 | 518,1 | 985,2 |
| 41 | Nogales | 02-05-2026 10:00 | 18,4 | 63,7 | 0 | 0 | 73 | 478,1 | 985,3 |
| 40 | Nogales | 02-05-2026 09:45 | 17,3 | 66,2 | 0 | 0 | 72 | 438,1 | 985,4 |
| 39 | Nogales | 02-05-2026 09:30 | 16,2 | 70,2 | 0 | 0 | 72 | 393,1 | 985,6 |
| 38 | Nogales | 02-05-2026 09:15 | 14,6 | 83 | 0 | 0 | 72 | 345,6 | 985,7 |
| 37 | Nogales | 02-05-2026 09:00 | 12,9 | 91,1 | 0 | 0 | 72 | 260,6 | 985,8 |
| 36 | Nogales | 02-05-2026 08:45 | 10 | 93,7 | 0 | 0 | 72 | 246,9 | 985,8 |
| 35 | Nogales | 02-05-2026 08:30 | 7,1 | 93,8 | 0 | 0 | 72 | 204,4 | 985,8 |
| 34 | Nogales | 02-05-2026 08:15 | 4,5 | 94,9 | 0 | 0 | 117 | 26,9 | 985,7 |
| 33 | Nogales | 02-05-2026 08:00 | 4,5 | 95 | 0 | 0 | 149 | 14,4 | 985,6 |
| 32 | Nogales | 02-05-2026 07:45 | 4,1 | 94,6 | 0 | 0 | 291 | 9,4 | 985,5 |
| 31 | Nogales | 02-05-2026 07:30 | 3,9 | 94,8 | 0 | 0 | 289 | 5,6 | 985,3 |
| 30 | Nogales | 02-05-2026 07:15 | 4,7 | 94,4 | 0 | 0 | 289 | 1,9 | 985,2 |
| 29 | Nogales | 02-05-2026 07:00 | 4,1 | 94,2 | 0 | 0 | 289 | 0,6 | 985,1 |
| 28 | Nogales | 02-05-2026 06:45 | 3,9 | 93,9 | 0 | 0 | 289 | 0,6 | 985,2 |
| 27 | Nogales | 02-05-2026 06:30 | 3,7 | 93,6 | 0 | 0 | 289 | 0,6 | 985,1 |
| 26 | Nogales | 02-05-2026 06:15 | 4,6 | 93,9 | 0 | 0 | 289 | 0,6 | 985,1 |
| 25 | Nogales | 02-05-2026 06:00 | 4,5 | 93,6 | 0 | 0 | 289 | 0,6 | 985,1 |
| 24 | Nogales | 02-05-2026 05:45 | 4,1 | 93,2 | 0 | 0 | 289 | 0,6 | 985,3 |
| 23 | Nogales | 02-05-2026 05:30 | 4,1 | 93,4 | 0 | 0 | 289 | 0,6 | 985,4 |
| 22 | Nogales | 02-05-2026 05:15 | 4 | 92,9 | 0 | 0 | 289 | 0,6 | 985,4 |
| 21 | Nogales | 02-05-2026 05:00 | 4,4 | 92,8 | 0 | 0 | 289 | 0,6 | 985,4 |
| 20 | Nogales | 02-05-2026 04:45 | 4,6 | 93,2 | 0 | 0 | 289 | 0,6 | 985,5 |
| 19 | Nogales | 02-05-2026 04:30 | 4,3 | 92,3 | 0 | 0 | 289 | 0,6 | 985,5 |
| 18 | Nogales | 02-05-2026 04:15 | 4,7 | 92,7 | 0 | 0 | 289 | 0,6 | 985,5 |
| 17 | Nogales | 02-05-2026 04:00 | 4,8 | 92,4 | 0 | 0 | 289 | 0,6 | 985,8 |
| 16 | Nogales | 02-05-2026 03:45 | 5,1 | 92 | 0 | 0 | 289 | 0,6 | 985,9 |
| 15 | Nogales | 02-05-2026 03:30 | 4,5 | 91,6 | 0 | 0 | 289 | 0,6 | 986,1 |
| 14 | Nogales | 02-05-2026 03:15 | 5,3 | 91,7 | 0 | 0 | 289 | 0,6 | 986,2 |
| 13 | Nogales | 02-05-2026 03:00 | 4,9 | 91,5 | 0 | 0 | 289 | 0,6 | 986,2 |
| 12 | Nogales | 02-05-2026 02:45 | 5,1 | 91,2 | 0 | 0 | 289 | 0,6 | 986,5 |
| 11 | Nogales | 02-05-2026 02:30 | 5,5 | 90,9 | 0 | 0 | 289 | 0,6 | 986,5 |
| 10 | Nogales | 02-05-2026 02:15 | 5,5 | 90,6 | 0 | 0 | 289 | 0,6 | 986,7 |
| 9 | Nogales | 02-05-2026 02:00 | 5,3 | 90,3 | 0 | 0 | 289 | 0,6 | 986,8 |
| 8 | Nogales | 02-05-2026 01:45 | 5,9 | 90,1 | 0 | 0 | 289 | 0,6 | 986,9 |
| 7 | Nogales | 02-05-2026 01:30 | 6,5 | 90,3 | 0 | 0 | 289 | 0,6 | 987 |
| 6 | Nogales | 02-05-2026 01:15 | 6,6 | 90 | 0 | 0 | 289 | 0,6 | 987,2 |
| 5 | Nogales | 02-05-2026 01:00 | 6,2 | 89,3 | 0 | 0 | 286 | 0,6 | 987,4 |
| 4 | Nogales | 02-05-2026 00:45 | 6,5 | 88,8 | 0 | 0 | 286 | 0,6 | 987,6 |
| 3 | Nogales | 02-05-2026 00:30 | 6,8 | 88,9 | 0 | 0 | 286 | 0,6 | 987,8 |
| 2 | Nogales | 02-05-2026 00:15 | 7,1 | 88,2 | 0 | 0 | 286 | 0,6 | 987,8 |
| 1 | Nogales | 02-05-2026 00:00 | 7 | 87,7 | 0 | 0 | 286 | 0,6 | 988 |